Location: Alladorf
(49.9620°N, 11.3790°E)
Time: 21:28:41
(UTC+00:00)

CZ-2C R/B - Pass Details

Date: 29 November 2020
Orbit: 785 x 870 km, 98.2° (Epoch: 24 January)

Event Time Altitude Azimuth Distance (km) Brightness Sun altitude
Rises 04:48:25 0° 140° (SE) 3,405 6.7 -18.6°
Reaches altitude 10° 04:50:55 10° 133° (SE) 2,462 6.0 -18.2°
Maximum altitude 04:55:58 40° 66° (ENE) 1,217 3.9 -17.4°
Drops below altitude 10° 05:00:56 10° 358° (N) 2,424 4.9 -16.6°
Sets 05:03:22 0° 351° (N) 3,348 5.6 -16.3°
